Thunderstorms From: 26-05-2018 09:00 Until: 27-05-2018 05:00 warning for: Thunderstorms Level: Yellow info button

Although rather usual in this region, locally or potentially dangerous phenomena are expected. (such as local winds, summer thunderstorms, rising streams or high waves) Be aware and pay attention to the latest weather updates, especially if you carry out activities exposed to weather or close to a stream or shoreline. 


Meteo18 Weather Cam more information Meteo18 Weather Cam


warning for Thunderstorms more information blitzortung!


Rain radar more information rain snow radar


Visit our other weather sites:

Template documentation
and downloads

And another site



Weather Underground History page Text

Daily Summary for September 14, 2017 Units:  Both    English   Metric
« Previous Day
Next Day »
Daily Weekly Monthly Yearly Custom
  High: Low: Average:
Temperature: TemperatureC °F /  -17.8 °C 10.0 °F /  -12.2 °C 13.9 °F /  -10.1 °C
Dew Point: DewpointC °F /  -17.8 °C 7.0 °F /  -13.9 °C 9.4 °F /  -12.6 °C
Humidity: Humidity % 54 % 75 %
Wind Speed: WindSpeedKMH mph /  0 km/h - 13.1 mph /  21.1 km/h
Wind Gust: WindSpeedGustKMH mph /  0 km/h - -
Wind:- - WSW
Pressure: PressurehPa in /  0 hPa 1008.4 in /  34144.4 hPa -
Precipitation: 11.9 in /  302.26 mm    
Historical Graphs
 
 
Tabular Data for September 14, 2017
Time Temperature Dew Point Pressure Wind Wind Speed Wind Gust Humidity Rainfall Rate (Hourly)
TemperatureC °F /  -17.8 °C DewpointC °F /  -17.8 °C PressurehPa in /  0 hPa Calm     Humidity % HourlyPrecipMM in /  0 mm
00:02 17.8 °F /  -7.9 °C 15.1 °F /  -9.4 °C 1011.4 in /  34246 hPa SW 37.0 mph /  59.5 km/h 51.5 mph /  82.9 km/h 84 % 0.0 in /  0 mm
00:07 17.8 °F /  -7.9 °C 15.1 °F /  -9.4 °C 1011.4 in /  34246 hPa SW 27.4 mph /  44.1 km/h 51.5 mph /  82.9 km/h 84 % 0.0 in /  0 mm
00:12 17.7 °F /  -7.9 °C 15.0 °F /  -9.4 °C 1011.4 in /  34246 hPa SW 20.9 mph /  33.6 km/h 46.7 mph /  75.2 km/h 84 % 0.0 in /  0 mm
00:17 17.7 °F /  -7.9 °C 15.0 °F /  -9.4 °C 1011.4 in /  34246 hPa SSW 32.2 mph /  51.8 km/h 46.7 mph /  75.2 km/h 84 % 0.0 in /  0 mm
00:22 17.7 °F /  -7.9 °C 15.0 °F /  -9.4 °C 1011.4 in /  34246 hPa West 24.1 mph /  38.8 km/h 46.7 mph /  75.2 km/h 84 % 0.0 in /  0 mm
00:32 17.7 °F /  -7.9 °C 14.8 °F /  -9.6 °C 1011.1 in /  34235.8 hPa SSW 14.5 mph /  23.3 km/h 45.1 mph /  72.6 km/h 83 % 0.0 in /  0 mm
00:42 17.5 °F /  -8.1 °C 14.6 °F /  -9.7 °C 1011.1 in /  34235.8 hPa WSW 25.7 mph /  41.4 km/h 53.1 mph /  85.5 km/h 83 % 0.0 in /  0 mm
00:52 17.5 °F /  -8.1 °C 14.4 °F /  -9.8 °C 1010.7 in /  34222.3 hPa SW 12.9 mph /  20.8 km/h 38.6 mph /  62.1 km/h 82 % 0.0 in /  0 mm
00:57 17.5 °F /  -8.1 °C 14.4 °F /  -9.8 °C 1010.7 in /  34222.3 hPa SW 25.7 mph /  41.4 km/h 41.8 mph /  67.3 km/h 82 % 0.0 in /  0 mm
01:02 17.5 °F /  -8.1 °C 14.6 °F /  -9.7 °C 1010.7 in /  34222.3 hPa SW 37.0 mph /  59.5 km/h 41.8 mph /  67.3 km/h 83 % 0.0 in /  0 mm
01:07 17.5 °F /  -8.1 °C 14.6 °F /  -9.7 °C 1010.4 in /  34212.1 hPa West 32.2 mph /  51.8 km/h 40.2 mph /  64.7 km/h 83 % 0.0 in /  0 mm
01:12 17.4 °F /  -8.1 °C 14.5 °F /  -9.7 °C 1010.4 in /  34212.1 hPa South 11.3 mph /  18.2 km/h 40.2 mph /  64.7 km/h 83 % 0.0 in /  0 mm
01:17 17.4 °F /  -8.1 °C 14.5 °F /  -9.7 °C 1010.4 in /  34212.1 hPa SW 27.4 mph /  44.1 km/h 37.0 mph /  59.5 km/h 83 % 0.0 in /  0 mm
01:27 17.4 °F /  -8.1 °C 14.5 °F /  -9.7 °C 1010.0 in /  34198.6 hPa SW 32.2 mph /  51.8 km/h 46.7 mph /  75.2 km/h 83 % 0.0 in /  0 mm
01:32 17.4 °F /  -8.1 °C 14.5 °F /  -9.7 °C 1010.0 in /  34198.6 hPa SSE 20.9 mph /  33.6 km/h 46.7 mph /  75.2 km/h 83 % 0.0 in /  0 mm
01:37 17.4 °F /  -8.1 °C 14.5 °F /  -9.7 °C 1009.7 in /  34188.4 hPa SW 29.0 mph /  46.7 km/h 46.7 mph /  75.2 km/h 83 % 0.0 in /  0 mm
01:42 17.4 °F /  -8.1 °C 14.5 °F /  -9.7 °C 1009.7 in /  34188.4 hPa SW 17.7 mph /  28.5 km/h 46.7 mph /  75.2 km/h 83 % 0.0 in /  0 mm
01:47 17.5 °F /  -8.1 °C 14.4 °F /  -9.8 °C 1009.7 in /  34188.4 hPa SW 24.1 mph /  38.8 km/h 41.8 mph /  67.3 km/h 82 % 0.0 in /  0 mm
01:52 17.6 °F /  -8 °C 14.5 °F /  -9.7 °C 1009.7 in /  34188.4 hPa SW 33.8 mph /  54.4 km/h 40.2 mph /  64.7 km/h 82 % 0.0 in /  0 mm
01:57 17.6 °F /  -8 °C 14.5 °F /  -9.7 °C 1009.7 in /  34188.4 hPa SW 37.0 mph /  59.5 km/h 40.2 mph /  64.7 km/h 82 % 0.0 in /  0 mm
02:07 17.6 °F /  -8 °C 14.5 °F /  -9.7 °C 1009.7 in /  34188.4 hPa WSW 25.7 mph /  41.4 km/h 40.2 mph /  64.7 km/h 82 % 0.0 in /  0 mm
02:12 17.7 °F /  -7.9 °C 14.6 °F /  -9.7 °C 1009.4 in /  34178.3 hPa WSW 32.2 mph /  51.8 km/h 45.1 mph /  72.6 km/h 82 % 0.0 in /  0 mm
02:17 17.7 °F /  -7.9 °C 14.6 °F /  -9.7 °C 1009.4 in /  34178.3 hPa WSW 38.6 mph /  62.1 km/h 45.1 mph /  72.6 km/h 82 % 0.0 in /  0 mm
02:22 17.8 °F /  -7.9 °C 14.5 °F /  -9.7 °C 1009.4 in /  34178.3 hPa WSW 22.5 mph /  36.2 km/h 45.1 mph /  72.6 km/h 81 % 0.0 in /  0 mm
02:32 17.9 °F /  -7.8 °C 14.8 °F /  -9.6 °C 1009.4 in /  34178.3 hPa West 22.5 mph /  36.2 km/h 46.7 mph /  75.2 km/h 82 % 0.0 in /  0 mm
02:37 17.9 °F /  -7.8 °C 14.8 °F /  -9.6 °C 1009.0 in /  34164.7 hPa SW 24.1 mph /  38.8 km/h 45.1 mph /  72.6 km/h 82 % 0.0 in /  0 mm
02:42 17.9 °F /  -7.8 °C 14.8 °F /  -9.6 °C 1009.0 in /  34164.7 hPa SW 20.9 mph /  33.6 km/h 46.7 mph /  75.2 km/h 82 % 0.0 in /  0 mm
02:47 17.9 °F /  -7.8 °C 14.8 °F /  -9.6 °C 1009.0 in /  34164.7 hPa SSW 20.9 mph /  33.6 km/h 46.7 mph /  75.2 km/h 82 % 0.0 in /  0 mm
02:52 18.0 °F /  -7.8 °C 14.9 °F /  -9.5 °C 1008.7 in /  34154.6 hPa SW 29.0 mph /  46.7 km/h 45.1 mph /  72.6 km/h 82 % 0.0 in /  0 mm
03:02 18.0 °F /  -7.8 °C 14.9 °F /  -9.5 °C 1008.7 in /  34154.6 hPa SW 19.3 mph /  31.1 km/h 45.1 mph /  72.6 km/h 82 % 0.0 in /  0 mm
03:07 18.0 °F /  -7.8 °C 14.9 °F /  -9.5 °C 1008.7 in /  34154.6 hPa SSW 27.4 mph /  44.1 km/h 45.1 mph /  72.6 km/h 82 % 0.0 in /  0 mm
03:12 17.9 °F /  -7.8 °C 14.8 °F /  -9.6 °C 1008.7 in /  34154.6 hPa SW 37.0 mph /  59.5 km/h 45.1 mph /  72.6 km/h 82 % 0.0 in /  0 mm
03:17 18.0 °F /  -7.8 °C 14.9 °F /  -9.5 °C 1008.7 in /  34154.6 hPa WSW 27.4 mph /  44.1 km/h 43.4 mph /  69.8 km/h 82 % 0.0 in /  0 mm
03:22 18.0 °F /  -7.8 °C 14.9 °F /  -9.5 °C 1008.7 in /  34154.6 hPa SW 25.7 mph /  41.4 km/h 43.4 mph /  69.8 km/h 82 % 0.0 in /  0 mm
03:27 18.0 °F /  -7.8 °C 14.7 °F /  -9.6 °C 1008.4 in /  34144.4 hPa SW 19.3 mph /  31.1 km/h 51.5 mph /  82.9 km/h 81 % 0.0 in /  0 mm
03:32 17.9 °F /  -7.8 °C 14.6 °F /  -9.7 °C 1008.7 in /  34154.6 hPa WNW 20.9 mph /  33.6 km/h 51.5 mph /  82.9 km/h 81 % 0.0 in /  0 mm
03:37 17.8 °F /  -7.9 °C 14.9 °F /  -9.5 °C 1009.7 in /  34188.4 hPa NW 30.6 mph /  49.2 km/h 43.4 mph /  69.8 km/h 83 % 0.0 in /  0 mm
03:42 15.2 °F /  -9.3 °C 11.6 °F /  -11.3 °C 1010.0 in /  34198.6 hPa WNW 27.4 mph /  44.1 km/h 41.8 mph /  67.3 km/h 79 % 0.5 in /  12.7 mm
03:47 13.3 °F /  -10.4 °C 11.2 °F /  -11.6 °C 1010.0 in /  34198.6 hPa NNW 14.5 mph /  23.3 km/h 41.8 mph /  67.3 km/h 87 % 2.0 in /  50.8 mm
03:52 12.6 °F /  -10.8 °C 11.0 °F /  -11.7 °C 1010.0 in /  34198.6 hPa NNW 14.5 mph /  23.3 km/h 40.2 mph /  64.7 km/h 90 % 2.3 in /  58.42 mm
03:57 12.3 °F /  -10.9 °C 10.9 °F /  -11.7 °C 1009.7 in /  34188.4 hPa ENE 12.9 mph /  20.8 km/h 33.8 mph /  54.4 km/h 91 % 2.5 in /  63.5 mm
04:02 12.1 °F /  -11.1 °C 10.8 °F /  -11.8 °C 1010.0 in /  34198.6 hPa WNW 12.9 mph /  20.8 km/h 33.8 mph /  54.4 km/h 92 % 2.5 in /  63.5 mm
04:07 11.9 °F /  -11.2 °C 10.6 °F /  -11.9 °C 1010.0 in /  34198.6 hPa WNW 19.3 mph /  31.1 km/h 25.7 mph /  41.4 km/h 92 % 3.0 in /  76.2 mm
04:12 11.9 °F /  -11.2 °C 10.6 °F /  -11.9 °C 1010.0 in /  34198.6 hPa NW 6.4 mph /  10.3 km/h 24.1 mph /  38.8 km/h 92 % 3.3 in /  83.82 mm
04:17 11.8 °F /  -11.2 °C 10.7 °F /  -11.8 °C 1010.0 in /  34198.6 hPa WNW 6.4 mph /  10.3 km/h 22.5 mph /  36.2 km/h 93 % 3.3 in /  83.82 mm
04:22 11.7 °F /  -11.3 °C 10.6 °F /  -11.9 °C 1010.4 in /  34212.1 hPa WNW 8.0 mph /  12.9 km/h 24.1 mph /  38.8 km/h 93 % 3.3 in /  83.82 mm
04:27 11.7 °F /  -11.3 °C 10.6 °F /  -11.9 °C 1010.4 in /  34212.1 hPa WNW 11.3 mph /  18.2 km/h 29.0 mph /  46.7 km/h 93 % 3.6 in /  91.44 mm
04:32 11.6 °F /  -11.3 °C 10.5 °F /  -11.9 °C 1010.4 in /  34212.1 hPa WSW 8.0 mph /  12.9 km/h 29.0 mph /  46.7 km/h 93 % 3.6 in /  91.44 mm
04:37 11.6 °F /  -11.3 °C 10.5 °F /  -11.9 °C 1010.4 in /  34212.1 hPa West 3.2 mph /  5.1 km/h 29.0 mph /  46.7 km/h 93 % 3.6 in /  91.44 mm
04:42 11.4 °F /  -11.4 °C 10.3 °F /  -12.1 °C 1010.4 in /  34212.1 hPa West 3.2 mph /  5.1 km/h 16.1 mph /  25.9 km/h 93 % 2.8 in /  71.12 mm
04:47 11.3 °F /  -11.5 °C 10.2 °F /  -12.1 °C 1010.4 in /  34212.1 hPa NNW 4.8 mph /  7.7 km/h 16.1 mph /  25.9 km/h 93 % 2.0 in /  50.8 mm
04:52 11.3 °F /  -11.5 °C 10.2 °F /  -12.1 °C 1010.7 in /  34222.3 hPa NW 6.4 mph /  10.3 km/h 16.1 mph /  25.9 km/h 93 % 2.0 in /  50.8 mm
05:02 11.2 °F /  -11.6 °C 10.1 °F /  -12.2 °C 1011.1 in /  34235.8 hPa West 9.7 mph /  15.6 km/h 19.3 mph /  31.1 km/h 93 % 2.3 in /  58.42 mm
05:07 11.2 °F /  -11.6 °C 10.1 °F /  -12.2 °C 1011.1 in /  34235.8 hPa SSW 4.8 mph /  7.7 km/h 19.3 mph /  31.1 km/h 93 % 2.3 in /  58.42 mm
05:12 11.2 °F /  -11.6 °C 10.1 °F /  -12.2 °C 1011.1 in /  34235.8 hPa WSW 1.6 mph /  2.6 km/h 19.3 mph /  31.1 km/h 93 % 2.3 in /  58.42 mm
05:22 11.1 °F /  -11.6 °C 10.0 °F /  -12.2 °C 1011.1 in /  34235.8 hPa WSW 1.6 mph /  2.6 km/h 20.9 mph /  33.6 km/h 93 % 2.3 in /  58.42 mm
05:32 11.1 °F /  -11.6 °C 10.0 °F /  -12.2 °C 1011.4 in /  34246 hPa WSW 6.4 mph /  10.3 km/h 12.9 mph /  20.8 km/h 93 % 2.3 in /  58.42 mm
05:37 11.2 °F /  -11.6 °C 9.9 °F /  -12.3 °C 1011.1 in /  34235.8 hPa West 11.3 mph /  18.2 km/h 12.9 mph /  20.8 km/h 92 % 2.3 in /  58.42 mm
05:42 11.2 °F /  -11.6 °C 9.9 °F /  -12.3 °C 1011.7 in /  34256.2 hPa SSW 8.0 mph /  12.9 km/h 19.3 mph /  31.1 km/h 92 % 2.0 in /  50.8 mm
05:47 11.2 °F /  -11.6 °C 9.9 °F /  -12.3 °C 1011.4 in /  34246 hPa NW 6.4 mph /  10.3 km/h 19.3 mph /  31.1 km/h 92 % 1.8 in /  45.72 mm
05:52 11.2 °F /  -11.6 °C 9.9 °F /  -12.3 °C 1011.4 in /  34246 hPa West 4.8 mph /  7.7 km/h 19.3 mph /  31.1 km/h 92 % 1.5 in /  38.1 mm
05:57 11.1 °F /  -11.6 °C 9.8 °F /  -12.3 °C 1011.4 in /  34246 hPa SW 8.0 mph /  12.9 km/h 11.3 mph /  18.2 km/h 92 % 1.5 in /  38.1 mm
06:02 11.1 °F /  -11.6 °C 9.8 °F /  -12.3 °C 1011.7 in /  34256.2 hPa SW 4.8 mph /  7.7 km/h 11.3 mph /  18.2 km/h 92 % 1.3 in /  33.02 mm
06:07 11.0 °F /  -11.7 °C 9.8 °F /  -12.3 °C 1011.1 in /  34235.8 hPa WSW 3.2 mph /  5.1 km/h 9.7 mph /  15.6 km/h 92 % 0.8 in /  20.32 mm
06:12 10.9 °F /  -11.7 °C 9.8 °F /  -12.3 °C 1011.1 in /  34235.8 hPa SSW 1.6 mph /  2.6 km/h 9.7 mph /  15.6 km/h 93 % 0.8 in /  20.32 mm
06:17 10.9 °F /  -11.7 °C 9.8 °F /  -12.3 °C 1011.1 in /  34235.8 hPa Calm   9.7 mph /  15.6 km/h 93 % 0.5 in /  12.7 mm
06:22 11.0 °F /  -11.7 °C 10.1 °F /  -12.2 °C 1011.7 in /  34256.2 hPa SW 6.4 mph /  10.3 km/h 9.7 mph /  15.6 km/h 94 % 0.5 in /  12.7 mm
06:32 11.1 °F /  -11.6 °C 10.2 °F /  -12.1 °C 1011.1 in /  34235.8 hPa SSW 1.6 mph /  2.6 km/h 11.3 mph /  18.2 km/h 94 % 0.8 in /  20.32 mm
06:37 11.1 °F /  -11.6 °C 10.2 °F /  -12.1 °C 1011.7 in /  34256.2 hPa WSW 6.4 mph /  10.3 km/h 12.9 mph /  20.8 km/h 94 % 1.5 in /  38.1 mm
06:42 11.1 °F /  -11.6 °C 10.3 °F /  -12.1 °C 1011.4 in /  34246 hPa WNW 1.6 mph /  2.6 km/h 12.9 mph /  20.8 km/h 95 % 1.5 in /  38.1 mm
06:52 11.0 °F /  -11.7 °C 10.2 °F /  -12.1 °C 1011.7 in /  34256.2 hPa SSE 1.6 mph /  2.6 km/h 12.9 mph /  20.8 km/h 95 % 2.0 in /  50.8 mm
06:57 11.0 °F /  -11.7 °C 10.2 °F /  -12.1 °C 1011.4 in /  34246 hPa SW 3.2 mph /  5.1 km/h 14.5 mph /  23.3 km/h 95 % 2.8 in /  71.12 mm
07:02 11.0 °F /  -11.7 °C 10.2 °F /  -12.1 °C 1011.7 in /  34256.2 hPa SSW 9.7 mph /  15.6 km/h 14.5 mph /  23.3 km/h 95 % 2.8 in /  71.12 mm
07:12 10.9 °F /  -11.7 °C 10.1 °F /  -12.2 °C 1011.7 in /  34256.2 hPa South 6.4 mph /  10.3 km/h 16.1 mph /  25.9 km/h 95 % 3.0 in /  76.2 mm
07:17 10.9 °F /  -11.7 °C 10.1 °F /  -12.2 °C 1011.7 in /  34256.2 hPa SSW 9.7 mph /  15.6 km/h 16.1 mph /  25.9 km/h 95 % 3.3 in /  83.82 mm
07:22 10.9 °F /  -11.7 °C 10.1 °F /  -12.2 °C 1011.7 in /  34256.2 hPa South 3.2 mph /  5.1 km/h 17.7 mph /  28.5 km/h 95 % 3.6 in /  91.44 mm
07:27 11.0 °F /  -11.7 °C 10.2 °F /  -12.1 °C 1011.7 in /  34256.2 hPa SW 9.7 mph /  15.6 km/h 17.7 mph /  28.5 km/h 95 % 3.6 in /  91.44 mm
07:32 11.0 °F /  -11.7 °C 10.2 °F /  -12.1 °C 1011.7 in /  34256.2 hPa WSW 14.5 mph /  23.3 km/h 25.7 mph /  41.4 km/h 95 % 3.3 in /  83.82 mm
07:37 11.0 °F /  -11.7 °C 10.2 °F /  -12.1 °C 1011.7 in /  34256.2 hPa SW 12.9 mph /  20.8 km/h 25.7 mph /  41.4 km/h 95 % 3.8 in /  96.52 mm
07:42 11.0 °F /  -11.7 °C 10.2 °F /  -12.1 °C 1011.7 in /  34256.2 hPa West 12.9 mph /  20.8 km/h 25.7 mph /  41.4 km/h 95 % 3.6 in /  91.44 mm
07:47 11.0 °F /  -11.7 °C 10.2 °F /  -12.1 °C 1012.1 in /  34269.7 hPa SW 16.1 mph /  25.9 km/h 22.5 mph /  36.2 km/h 95 % 3.6 in /  91.44 mm
07:52 11.0 °F /  -11.7 °C 10.2 °F /  -12.1 °C 1011.4 in /  34246 hPa SW 6.4 mph /  10.3 km/h 27.4 mph /  44.1 km/h 95 % 3.3 in /  83.82 mm
08:02 11.1 °F /  -11.6 °C 10.3 °F /  -12.1 °C 1011.7 in /  34256.2 hPa SW 8.0 mph /  12.9 km/h 27.4 mph /  44.1 km/h 95 % 3.0 in /  76.2 mm
08:12 11.2 °F /  -11.6 °C 10.4 °F /  -12 °C 1012.1 in /  34269.7 hPa SW 20.9 mph /  33.6 km/h 22.5 mph /  36.2 km/h 95 % 2.8 in /  71.12 mm
08:22 11.3 °F /  -11.5 °C 10.4 °F /  -12 °C 1012.1 in /  34269.7 hPa WSW 12.9 mph /  20.8 km/h 22.5 mph /  36.2 km/h 94 % 1.5 in /  38.1 mm
08:32 11.3 °F /  -11.5 °C 10.4 °F /  -12 °C 1012.1 in /  34269.7 hPa SW 12.9 mph /  20.8 km/h 29.0 mph /  46.7 km/h 94 % 1.3 in /  33.02 mm
08:37 11.4 °F /  -11.4 °C 10.5 °F /  -11.9 °C 1012.1 in /  34269.7 hPa WSW 16.1 mph /  25.9 km/h 32.2 mph /  51.8 km/h 94 % 0.8 in /  20.32 mm
08:42 11.4 °F /  -11.4 °C 10.3 °F /  -12.1 °C 1012.8 in /  34293.4 hPa West 16.1 mph /  25.9 km/h 32.2 mph /  51.8 km/h 93 % 0.5 in /  12.7 mm
08:47 11.4 °F /  -11.4 °C 10.3 °F /  -12.1 °C 1012.4 in /  34279.9 hPa West 16.1 mph /  25.9 km/h 27.4 mph /  44.1 km/h 93 % 0.3 in /  7.62 mm
08:52 11.6 °F /  -11.3 °C 10.3 °F /  -12.1 °C 1012.8 in /  34293.4 hPa West 11.3 mph /  18.2 km/h 27.4 mph /  44.1 km/h 92 % 0.3 in /  7.62 mm
09:02 11.6 °F /  -11.3 °C 10.3 °F /  -12.1 °C 1012.8 in /  34293.4 hPa West 9.7 mph /  15.6 km/h 27.4 mph /  44.1 km/h 92 % 0.0 in /  0 mm
09:12 11.7 °F /  -11.3 °C 10.4 °F /  -12 °C 1013.1 in /  34303.6 hPa WSW 9.7 mph /  15.6 km/h 24.1 mph /  38.8 km/h 92 % 0.0 in /  0 mm
09:17 11.7 °F /  -11.3 °C 10.4 °F /  -12 °C 1012.8 in /  34293.4 hPa WSW 20.9 mph /  33.6 km/h 25.7 mph /  41.4 km/h 92 % 0.0 in /  0 mm
09:22 11.7 °F /  -11.3 °C 10.4 °F /  -12 °C 1013.1 in /  34303.6 hPa West 9.7 mph /  15.6 km/h 25.7 mph /  41.4 km/h 92 % 0.0 in /  0 mm
09:32 11.7 °F /  -11.3 °C 10.4 °F /  -12 °C 1013.1 in /  34303.6 hPa West 12.9 mph /  20.8 km/h 24.1 mph /  38.8 km/h 92 % 0.0 in /  0 mm
09:37 11.7 °F /  -11.3 °C 10.3 °F /  -12.1 °C 1013.4 in /  34313.7 hPa West 19.3 mph /  31.1 km/h 25.7 mph /  41.4 km/h 91 % 0.3 in /  7.62 mm
09:42 11.8 °F /  -11.2 °C 10.2 °F /  -12.1 °C 1013.4 in /  34313.7 hPa WSW 16.1 mph /  25.9 km/h 25.7 mph /  41.4 km/h 90 % 0.3 in /  7.62 mm
09:47 11.8 °F /  -11.2 °C 10.2 °F /  -12.1 °C 1013.4 in /  34313.7 hPa WSW 12.9 mph /  20.8 km/h 32.2 mph /  51.8 km/h 90 % 0.3 in /  7.62 mm
09:52 11.8 °F /  -11.2 °C 10.0 °F /  -12.2 °C 1013.8 in /  34327.3 hPa WNW 9.7 mph /  15.6 km/h 32.2 mph /  51.8 km/h 89 % 0.3 in /  7.62 mm
10:02 12.0 °F /  -11.1 °C 9.4 °F /  -12.6 °C 1013.8 in /  34327.3 hPa WNW 19.3 mph /  31.1 km/h 30.6 mph /  49.2 km/h 84 % 0.3 in /  7.62 mm
10:12 12.3 °F /  -10.9 °C 9.5 °F /  -12.5 °C 1013.8 in /  34327.3 hPa West 22.5 mph /  36.2 km/h 38.6 mph /  62.1 km/h 83 % 0.3 in /  7.62 mm
10:17 12.4 °F /  -10.9 °C 9.8 °F /  -12.3 °C 1014.1 in /  34337.4 hPa West 11.3 mph /  18.2 km/h 38.6 mph /  62.1 km/h 84 % 0.3 in /  7.62 mm
10:22 12.7 °F /  -10.7 °C 10.2 °F /  -12.1 °C 1014.1 in /  34337.4 hPa West 19.3 mph /  31.1 km/h 35.4 mph /  57 km/h 85 % 0.3 in /  7.62 mm
10:32 12.8 °F /  -10.7 °C 9.8 °F /  -12.3 °C 1014.4 in /  34347.6 hPa WSW 16.1 mph /  25.9 km/h 33.8 mph /  54.4 km/h 82 % 0.3 in /  7.62 mm
10:42 12.7 °F /  -10.7 °C 9.7 °F /  -12.4 °C 1014.8 in /  34361.1 hPa West 17.7 mph /  28.5 km/h 33.8 mph /  54.4 km/h 82 % 0.0 in /  0 mm
10:47 12.7 °F /  -10.7 °C 9.9 °F /  -12.3 °C 1014.8 in /  34361.1 hPa West 14.5 mph /  23.3 km/h 35.4 mph /  57 km/h 83 % 0.0 in /  0 mm
11:02 13.2 °F /  -10.4 °C 9.3 °F /  -12.6 °C 1015.1 in /  34371.3 hPa West 25.7 mph /  41.4 km/h 33.8 mph /  54.4 km/h 77 % 0.0 in /  0 mm
11:12 13.4 °F /  -10.3 °C 9.1 °F /  -12.7 °C 1015.1 in /  34371.3 hPa WSW 20.9 mph /  33.6 km/h 35.4 mph /  57 km/h 75 % 0.0 in /  0 mm
11:17 13.6 °F /  -10.2 °C 8.9 °F /  -12.8 °C 1015.5 in /  34384.8 hPa West 12.9 mph /  20.8 km/h 38.6 mph /  62.1 km/h 73 % 0.0 in /  0 mm
11:22 13.6 °F /  -10.2 °C 8.4 °F /  -13.1 °C 1015.5 in /  34384.8 hPa West 22.5 mph /  36.2 km/h 38.6 mph /  62.1 km/h 71 % 0.0 in /  0 mm
11:32 13.4 °F /  -10.3 °C 8.5 °F /  -13.1 °C 1015.5 in /  34384.8 hPa WNW 17.7 mph /  28.5 km/h 43.4 mph /  69.8 km/h 72 % 0.0 in /  0 mm
11:42 13.6 °F /  -10.2 °C 8.6 °F /  -13 °C 1015.8 in /  34395 hPa West 16.1 mph /  25.9 km/h 43.4 mph /  69.8 km/h 72 % 0.0 in /  0 mm
11:47 13.8 °F /  -10.1 °C 8.4 °F /  -13.1 °C 1016.1 in /  34405.1 hPa WNW 32.2 mph /  51.8 km/h 43.4 mph /  69.8 km/h 70 % 0.0 in /  0 mm
11:52 13.9 °F /  -10.1 °C 8.5 °F /  -13.1 °C 1016.1 in /  34405.1 hPa West 19.3 mph /  31.1 km/h 40.2 mph /  64.7 km/h 70 % 0.0 in /  0 mm
11:57 13.7 °F /  -10.2 °C 8.5 °F /  -13.1 °C 1016.1 in /  34405.1 hPa WNW 8.0 mph /  12.9 km/h 40.2 mph /  64.7 km/h 71 % 0.0 in /  0 mm
12:02 13.7 °F /  -10.2 °C 8.3 °F /  -13.2 °C 1016.5 in /  34418.7 hPa West 11.3 mph /  18.2 km/h 40.2 mph /  64.7 km/h 70 % 0.0 in /  0 mm
12:12 13.7 °F /  -10.2 °C 8.5 °F /  -13.1 °C 1016.5 in /  34418.7 hPa West 12.9 mph /  20.8 km/h 37.0 mph /  59.5 km/h 71 % 0.0 in /  0 mm
12:17 13.8 °F /  -10.1 °C 8.4 °F /  -13.1 °C 1016.5 in /  34418.7 hPa WSW 19.3 mph /  31.1 km/h 32.2 mph /  51.8 km/h 70 % 0.0 in /  0 mm
12:22 13.8 °F /  -10.1 °C 7.8 °F /  -13.4 °C 1016.5 in /  34418.7 hPa WNW 29.0 mph /  46.7 km/h 32.2 mph /  51.8 km/h 67 % 0.0 in /  0 mm
12:32 13.6 °F /  -10.2 °C 8.4 °F /  -13.1 °C 1016.5 in /  34418.7 hPa WSW 24.1 mph /  38.8 km/h 41.8 mph /  67.3 km/h 71 % 0.0 in /  0 mm
12:42 14.0 °F /  -10 °C 8.2 °F /  -13.2 °C 1016.8 in /  34428.8 hPa WNW 17.7 mph /  28.5 km/h 41.8 mph /  67.3 km/h 68 % 0.0 in /  0 mm
12:47 14.1 °F /  -9.9 °C 7.6 °F /  -13.6 °C 1016.8 in /  34428.8 hPa WSW 17.7 mph /  28.5 km/h 30.6 mph /  49.2 km/h 65 % 0.0 in /  0 mm
12:52 14.3 °F /  -9.8 °C 7.8 °F /  -13.4 °C 1017.2 in /  34442.4 hPa WSW 30.6 mph /  49.2 km/h 30.6 mph /  49.2 km/h 65 % 0.0 in /  0 mm
12:57 13.9 °F /  -10.1 °C 8.1 °F /  -13.3 °C 1017.2 in /  34442.4 hPa West 24.1 mph /  38.8 km/h 37.0 mph /  59.5 km/h 68 % 0.0 in /  0 mm
13:02 13.9 °F /  -10.1 °C 8.7 °F /  -12.9 °C 1017.2 in /  34442.4 hPa WNW 11.3 mph /  18.2 km/h 37.0 mph /  59.5 km/h 71 % 0.0 in /  0 mm
13:12 14.3 °F /  -9.8 °C 8.0 °F /  -13.3 °C 1017.2 in /  34442.4 hPa WSW 20.9 mph /  33.6 km/h 37.0 mph /  59.5 km/h 66 % 0.0 in /  0 mm
13:17 14.1 °F /  -9.9 °C 7.8 °F /  -13.4 °C 1017.5 in /  34452.6 hPa WNW 24.1 mph /  38.8 km/h 29.0 mph /  46.7 km/h 66 % 0.0 in /  0 mm
13:22 13.8 °F /  -10.1 °C 7.8 °F /  -13.4 °C 1017.5 in /  34452.6 hPa WSW 24.1 mph /  38.8 km/h 30.6 mph /  49.2 km/h 67 % 0.0 in /  0 mm
13:27 14.0 °F /  -10 °C 8.0 °F /  -13.3 °C 1017.5 in /  34452.6 hPa West 11.3 mph /  18.2 km/h 32.2 mph /  51.8 km/h 67 % 0.0 in /  0 mm
13:32 14.4 °F /  -9.8 °C 7.4 °F /  -13.7 °C 1017.5 in /  34452.6 hPa West 14.5 mph /  23.3 km/h 32.2 mph /  51.8 km/h 63 % 0.0 in /  0 mm
13:42 14.4 °F /  -9.8 °C 8.1 °F /  -13.3 °C 1017.5 in /  34452.6 hPa West 12.9 mph /  20.8 km/h 32.2 mph /  51.8 km/h 66 % 0.0 in /  0 mm
13:47 14.8 °F /  -9.6 °C 8.1 °F /  -13.3 °C 1017.8 in /  34462.7 hPa West 17.7 mph /  28.5 km/h 32.2 mph /  51.8 km/h 64 % 0.0 in /  0 mm
13:52 15.0 °F /  -9.4 °C 8.0 °F /  -13.3 °C 1017.8 in /  34462.7 hPa WNW 11.3 mph /  18.2 km/h 30.6 mph /  49.2 km/h 63 % 0.0 in /  0 mm
13:57 14.7 °F /  -9.6 °C 7.5 °F /  -13.6 °C 1017.8 in /  34462.7 hPa WSW 19.3 mph /  31.1 km/h 30.6 mph /  49.2 km/h 62 % 0.0 in /  0 mm
14:02 14.4 °F /  -9.8 °C 8.1 °F /  -13.3 °C 1018.2 in /  34476.3 hPa West 20.9 mph /  33.6 km/h 30.6 mph /  49.2 km/h 66 % 0.0 in /  0 mm
14:12 14.4 °F /  -9.8 °C 8.3 °F /  -13.2 °C 1018.2 in /  34476.3 hPa West 12.9 mph /  20.8 km/h 32.2 mph /  51.8 km/h 67 % 0.0 in /  0 mm
14:17 14.4 °F /  -9.8 °C 7.7 °F /  -13.5 °C 1018.2 in /  34476.3 hPa WSW 11.3 mph /  18.2 km/h 32.2 mph /  51.8 km/h 64 % 0.0 in /  0 mm
14:22 14.5 °F /  -9.7 °C 7.8 °F /  -13.4 °C 1018.2 in /  34476.3 hPa West 11.3 mph /  18.2 km/h 33.8 mph /  54.4 km/h 64 % 0.0 in /  0 mm
14:27 14.7 °F /  -9.6 °C 8.2 °F /  -13.2 °C 1018.2 in /  34476.3 hPa West 14.5 mph /  23.3 km/h 33.8 mph /  54.4 km/h 65 % 0.0 in /  0 mm
14:32 15.0 °F /  -9.4 °C 8.5 °F /  -13.1 °C 1018.2 in /  34476.3 hPa WSW 19.3 mph /  31.1 km/h 27.4 mph /  44.1 km/h 65 % 0.0 in /  0 mm
14:37 15.1 °F /  -9.4 °C 8.1 °F /  -13.3 °C 1018.2 in /  34476.3 hPa WSW 19.3 mph /  31.1 km/h 27.4 mph /  44.1 km/h 63 % 0.0 in /  0 mm
14:42 14.8 °F /  -9.6 °C 7.8 °F /  -13.4 °C 1018.2 in /  34476.3 hPa West 17.7 mph /  28.5 km/h 29.0 mph /  46.7 km/h 63 % 0.0 in /  0 mm
14:47 14.8 °F /  -9.6 °C 7.8 °F /  -13.4 °C 1018.5 in /  34486.4 hPa West 16.1 mph /  25.9 km/h 32.2 mph /  51.8 km/h 63 % 0.0 in /  0 mm
14:52 15.0 °F /  -9.4 °C 8.0 °F /  -13.3 °C 1018.5 in /  34486.4 hPa West 16.1 mph /  25.9 km/h 37.0 mph /  59.5 km/h 63 % 0.0 in /  0 mm
14:57 15.0 °F /  -9.4 °C 8.0 °F /  -13.3 °C 1018.5 in /  34486.4 hPa West 17.7 mph /  28.5 km/h 37.0 mph /  59.5 km/h 63 % 0.0 in /  0 mm
15:02 14.9 °F /  -9.5 °C 7.9 °F /  -13.4 °C 1018.5 in /  34486.4 hPa WNW 14.5 mph /  23.3 km/h 29.0 mph /  46.7 km/h 63 % 0.0 in /  0 mm
15:07 15.1 °F /  -9.4 °C 8.1 °F /  -13.3 °C 1018.5 in /  34486.4 hPa WNW 27.4 mph /  44.1 km/h 29.0 mph /  46.7 km/h 63 % 0.0 in /  0 mm
15:12 14.9 °F /  -9.5 °C 7.9 °F /  -13.4 °C 1018.5 in /  34486.4 hPa West 9.7 mph /  15.6 km/h 33.8 mph /  54.4 km/h 63 % 0.0 in /  0 mm
15:17 15.1 °F /  -9.4 °C 8.3 °F /  -13.2 °C 1018.5 in /  34486.4 hPa West 6.4 mph /  10.3 km/h 33.8 mph /  54.4 km/h 64 % 0.0 in /  0 mm
15:22 15.1 °F /  -9.4 °C 8.3 °F /  -13.2 °C 1018.5 in /  34486.4 hPa West 17.7 mph /  28.5 km/h 33.8 mph /  54.4 km/h 64 % 0.0 in /  0 mm
15:27 15.1 °F /  -9.4 °C 7.9 °F /  -13.4 °C 1018.5 in /  34486.4 hPa WSW 22.5 mph /  36.2 km/h 30.6 mph /  49.2 km/h 62 % 0.0 in /  0 mm
15:32 15.1 °F /  -9.4 °C 8.1 °F /  -13.3 °C 1018.5 in /  34486.4 hPa NW 8.0 mph /  12.9 km/h 30.6 mph /  49.2 km/h 63 % 0.0 in /  0 mm
15:37 15.2 °F /  -9.3 °C 8.2 °F /  -13.2 °C 1018.5 in /  34486.4 hPa WNW 14.5 mph /  23.3 km/h 30.6 mph /  49.2 km/h 63 % 0.0 in /  0 mm
15:42 15.3 °F /  -9.3 °C 7.8 °F /  -13.4 °C 1018.5 in /  34486.4 hPa West 12.9 mph /  20.8 km/h 25.7 mph /  41.4 km/h 61 % 0.0 in /  0 mm
15:47 15.6 °F /  -9.1 °C 8.6 °F /  -13 °C 1018.5 in /  34486.4 hPa West 27.4 mph /  44.1 km/h 27.4 mph /  44.1 km/h 63 % 0.0 in /  0 mm
15:57 15.5 °F /  -9.2 °C 8.2 °F /  -13.2 °C 1018.5 in /  34486.4 hPa WSW 19.3 mph /  31.1 km/h 29.0 mph /  46.7 km/h 62 % 0.0 in /  0 mm
16:02 15.3 °F /  -9.3 °C 7.8 °F /  -13.4 °C 1018.5 in /  34486.4 hPa SW 12.9 mph /  20.8 km/h 29.0 mph /  46.7 km/h 61 % 0.0 in /  0 mm
16:07 15.4 °F /  -9.2 °C 7.9 °F /  -13.4 °C 1018.5 in /  34486.4 hPa WSW 16.1 mph /  25.9 km/h 24.1 mph /  38.8 km/h 61 % 0.0 in /  0 mm
16:12 15.4 °F /  -9.2 °C 7.9 °F /  -13.4 °C 1018.5 in /  34486.4 hPa West 20.9 mph /  33.6 km/h 29.0 mph /  46.7 km/h 61 % 0.0 in /  0 mm
16:17 15.4 °F /  -9.2 °C 7.7 °F /  -13.5 °C 1018.5 in /  34486.4 hPa WSW 16.1 mph /  25.9 km/h 29.0 mph /  46.7 km/h 60 % 0.0 in /  0 mm
16:22 15.3 °F /  -9.3 °C 7.8 °F /  -13.4 °C 1018.5 in /  34486.4 hPa West 14.5 mph /  23.3 km/h 33.8 mph /  54.4 km/h 61 % 0.0 in /  0 mm
16:32 15.9 °F /  -8.9 °C 7.6 °F /  -13.6 °C 1018.5 in /  34486.4 hPa SW 11.3 mph /  18.2 km/h 37.0 mph /  59.5 km/h 58 % 0.0 in /  0 mm
16:37 15.7 °F /  -9.1 °C 7.7 °F /  -13.5 °C 1018.5 in /  34486.4 hPa West 11.3 mph /  18.2 km/h 37.0 mph /  59.5 km/h 59 % 0.0 in /  0 mm
16:42 15.6 °F /  -9.1 °C 7.9 °F /  -13.4 °C 1018.5 in /  34486.4 hPa West 9.7 mph /  15.6 km/h 29.0 mph /  46.7 km/h 60 % 0.0 in /  0 mm
16:47 15.6 °F /  -9.1 °C 7.9 °F /  -13.4 °C 1018.5 in /  34486.4 hPa West 8.0 mph /  12.9 km/h 27.4 mph /  44.1 km/h 60 % 0.0 in /  0 mm
16:52 15.9 °F /  -8.9 °C 7.6 °F /  -13.6 °C 1018.5 in /  34486.4 hPa WNW 14.5 mph /  23.3 km/h 30.6 mph /  49.2 km/h 58 % 0.0 in /  0 mm
16:57 15.7 °F /  -9.1 °C 7.2 °F /  -13.8 °C 1018.5 in /  34486.4 hPa West 19.3 mph /  31.1 km/h 30.6 mph /  49.2 km/h 57 % 0.0 in /  0 mm
17:02 15.9 °F /  -8.9 °C 7.9 °F /  -13.4 °C 1018.2 in /  34476.3 hPa West 14.5 mph /  23.3 km/h 30.6 mph /  49.2 km/h 59 % 0.0 in /  0 mm
17:07 16.1 °F /  -8.8 °C 7.6 °F /  -13.6 °C 1018.2 in /  34476.3 hPa WSW 25.7 mph /  41.4 km/h 29.0 mph /  46.7 km/h 57 % 0.0 in /  0 mm
17:12 16.3 °F /  -8.7 °C 8.0 °F /  -13.3 °C 1018.5 in /  34486.4 hPa WSW 14.5 mph /  23.3 km/h 29.0 mph /  46.7 km/h 58 % 0.0 in /  0 mm
17:17 16.3 °F /  -8.7 °C 7.5 °F /  -13.6 °C 1018.2 in /  34476.3 hPa WSW 12.9 mph /  20.8 km/h 32.2 mph /  51.8 km/h 56 % 0.0 in /  0 mm
17:22 16.3 °F /  -8.7 °C 8.0 °F /  -13.3 °C 1018.5 in /  34486.4 hPa West 20.9 mph /  33.6 km/h 32.2 mph /  51.8 km/h 58 % 0.0 in /  0 mm
17:27 15.9 °F /  -8.9 °C 7.4 °F /  -13.7 °C 1018.5 in /  34486.4 hPa West 11.3 mph /  18.2 km/h 32.2 mph /  51.8 km/h 57 % 0.0 in /  0 mm
17:32 15.6 °F /  -9.1 °C 7.6 °F /  -13.6 °C 1018.5 in /  34486.4 hPa WSW 8.0 mph /  12.9 km/h 27.4 mph /  44.1 km/h 59 % 0.0 in /  0 mm
17:37 15.6 °F /  -9.1 °C 7.4 °F /  -13.7 °C 1018.5 in /  34486.4 hPa WSW 14.5 mph /  23.3 km/h 27.4 mph /  44.1 km/h 58 % 0.0 in /  0 mm
17:42 15.5 °F /  -9.2 °C 7.3 °F /  -13.7 °C 1018.2 in /  34476.3 hPa NW 9.7 mph /  15.6 km/h 25.7 mph /  41.4 km/h 58 % 0.0 in /  0 mm
17:47 15.5 °F /  -9.2 °C 7.3 °F /  -13.7 °C 1018.2 in /  34476.3 hPa SW 17.7 mph /  28.5 km/h 24.1 mph /  38.8 km/h 58 % 0.0 in /  0 mm
17:52 15.6 °F /  -9.1 °C 7.1 °F /  -13.8 °C 1018.2 in /  34476.3 hPa WNW 12.9 mph /  20.8 km/h 22.5 mph /  36.2 km/h 57 % 0.0 in /  0 mm
17:57 15.7 °F /  -9.1 °C 7.2 °F /  -13.8 °C 1018.2 in /  34476.3 hPa WSW 17.7 mph /  28.5 km/h 29.0 mph /  46.7 km/h 57 % 0.0 in /  0 mm
18:02 15.7 °F /  -9.1 °C 7.5 °F /  -13.6 °C 1018.2 in /  34476.3 hPa West 16.1 mph /  25.9 km/h 29.0 mph /  46.7 km/h 58 % 0.0 in /  0 mm
18:07 15.9 °F /  -8.9 °C 7.4 °F /  -13.7 °C 1018.2 in /  34476.3 hPa West 11.3 mph /  18.2 km/h 29.0 mph /  46.7 km/h 57 % 0.0 in /  0 mm
18:12 16.2 °F /  -8.8 °C 7.4 °F /  -13.7 °C 1018.2 in /  34476.3 hPa WSW 12.9 mph /  20.8 km/h 25.7 mph /  41.4 km/h 56 % 0.0 in /  0 mm
18:17 16.1 °F /  -8.8 °C 7.3 °F /  -13.7 °C 1018.2 in /  34476.3 hPa West 6.4 mph /  10.3 km/h 25.7 mph /  41.4 km/h 56 % 0.0 in /  0 mm
18:22 16.2 °F /  -8.8 °C 7.4 °F /  -13.7 °C 1018.2 in /  34476.3 hPa WSW 11.3 mph /  18.2 km/h 24.1 mph /  38.8 km/h 56 % 0.0 in /  0 mm
18:32 16.3 °F /  -8.7 °C 7.0 °F /  -13.9 °C 1018.2 in /  34476.3 hPa WSW 9.7 mph /  15.6 km/h 29.0 mph /  46.7 km/h 54 % 0.0 in /  0 mm
18:37 16.1 °F /  -8.8 °C 7.1 °F /  -13.8 °C 1018.2 in /  34476.3 hPa WSW 14.5 mph /  23.3 km/h 29.0 mph /  46.7 km/h 55 % 0.0 in /  0 mm
18:42 15.9 °F /  -8.9 °C 7.4 °F /  -13.7 °C 1018.2 in /  34476.3 hPa West 14.5 mph /  23.3 km/h 29.0 mph /  46.7 km/h 57 % 0.0 in /  0 mm
18:52 16.0 °F /  -8.9 °C 7.2 °F /  -13.8 °C 1018.2 in /  34476.3 hPa SW 19.3 mph /  31.1 km/h 27.4 mph /  44.1 km/h 56 % 0.0 in /  0 mm
18:57 16.0 °F /  -8.9 °C 7.5 °F /  -13.6 °C 1018.2 in /  34476.3 hPa West 8.0 mph /  12.9 km/h 27.4 mph /  44.1 km/h 57 % 0.0 in /  0 mm
19:02 15.9 °F /  -8.9 °C 7.4 °F /  -13.7 °C 1018.2 in /  34476.3 hPa WNW 22.5 mph /  36.2 km/h 27.4 mph /  44.1 km/h 57 % 0.0 in /  0 mm
19:07 15.9 °F /  -8.9 °C 7.4 °F /  -13.7 °C 1018.2 in /  34476.3 hPa West 11.3 mph /  18.2 km/h 24.1 mph /  38.8 km/h 57 % 0.0 in /  0 mm
19:12 15.8 °F /  -9 °C 7.3 °F /  -13.7 °C 1018.2 in /  34476.3 hPa WNW 6.4 mph /  10.3 km/h 24.1 mph /  38.8 km/h 57 % 0.0 in /  0 mm
19:17 15.8 °F /  -9 °C 7.3 °F /  -13.7 °C 1018.2 in /  34476.3 hPa SW 4.8 mph /  7.7 km/h 24.1 mph /  38.8 km/h 57 % 0.0 in /  0 mm
19:22 15.8 °F /  -9 °C 7.3 °F /  -13.7 °C 1018.2 in /  34476.3 hPa West 14.5 mph /  23.3 km/h 24.1 mph /  38.8 km/h 57 % 0.0 in /  0 mm
19:32 15.6 °F /  -9.1 °C 7.1 °F /  -13.8 °C 1018.5 in /  34486.4 hPa WSW 16.1 mph /  25.9 km/h 19.3 mph /  31.1 km/h 57 % 0.0 in /  0 mm
19:37 15.3 °F /  -9.3 °C 7.1 °F /  -13.8 °C 1018.5 in /  34486.4 hPa WSW 9.7 mph /  15.6 km/h 22.5 mph /  36.2 km/h 58 % 0.0 in /  0 mm
19:42 15.1 °F /  -9.4 °C 7.1 °F /  -13.8 °C 1018.5 in /  34486.4 hPa WSW 11.3 mph /  18.2 km/h 22.5 mph /  36.2 km/h 59 % 0.0 in /  0 mm
19:47 14.8 °F /  -9.6 °C 7.1 °F /  -13.8 °C 1018.5 in /  34486.4 hPa SW 4.8 mph /  7.7 km/h 22.5 mph /  36.2 km/h 60 % 0.0 in /  0 mm
19:52 14.7 °F /  -9.6 °C 7.3 °F /  -13.7 °C 1018.5 in /  34486.4 hPa West 4.8 mph /  7.7 km/h 14.5 mph /  23.3 km/h 61 % 0.0 in /  0 mm
19:57 14.6 °F /  -9.7 °C 7.4 °F /  -13.7 °C 1018.5 in /  34486.4 hPa West 4.8 mph /  7.7 km/h 12.9 mph /  20.8 km/h 62 % 0.0 in /  0 mm
20:02 14.3 °F /  -9.8 °C 7.4 °F /  -13.7 °C 1018.5 in /  34486.4 hPa WSW 3.2 mph /  5.1 km/h 9.7 mph /  15.6 km/h 63 % 0.0 in /  0 mm
20:07 14.2 °F /  -9.9 °C 7.5 °F /  -13.6 °C 1018.5 in /  34486.4 hPa WSW 4.8 mph /  7.7 km/h 9.7 mph /  15.6 km/h 64 % 0.0 in /  0 mm
20:12 13.9 °F /  -10.1 °C 7.2 °F /  -13.8 °C 1018.5 in /  34486.4 hPa SW 3.2 mph /  5.1 km/h 9.7 mph /  15.6 km/h 64 % 0.0 in /  0 mm
20:17 13.8 °F /  -10.1 °C 7.3 °F /  -13.7 °C 1018.8 in /  34496.6 hPa WSW 1.6 mph /  2.6 km/h 8.0 mph /  12.9 km/h 65 % 0.0 in /  0 mm
20:22 13.8 °F /  -10.1 °C 7.3 °F /  -13.7 °C 1018.8 in /  34496.6 hPa SW 3.2 mph /  5.1 km/h 8.0 mph /  12.9 km/h 65 % 0.0 in /  0 mm
20:32 13.6 °F /  -10.2 °C 7.4 °F /  -13.7 °C 1018.8 in /  34496.6 hPa WSW 3.2 mph /  5.1 km/h 11.3 mph /  18.2 km/h 66 % 0.0 in /  0 mm
20:37 13.5 °F /  -10.3 °C 7.3 °F /  -13.7 °C 1018.8 in /  34496.6 hPa WSW 4.8 mph /  7.7 km/h 11.3 mph /  18.2 km/h 66 % 0.0 in /  0 mm
20:42 13.4 °F /  -10.3 °C 7.2 °F /  -13.8 °C 1018.8 in /  34496.6 hPa SW 6.4 mph /  10.3 km/h 11.3 mph /  18.2 km/h 66 % 0.0 in /  0 mm
20:47 13.3 °F /  -10.4 °C 7.3 °F /  -13.7 °C 1018.8 in /  34496.6 hPa WSW 6.4 mph /  10.3 km/h 9.7 mph /  15.6 km/h 67 % 0.0 in /  0 mm
20:52 13.3 °F /  -10.4 °C 7.3 °F /  -13.7 °C 1018.8 in /  34496.6 hPa WSW 4.8 mph /  7.7 km/h 9.7 mph /  15.6 km/h 67 % 0.0 in /  0 mm
20:57 13.0 °F /  -10.6 °C 7.4 °F /  -13.7 °C 1018.8 in /  34496.6 hPa West 1.6 mph /  2.6 km/h 8.0 mph /  12.9 km/h 69 % 0.0 in /  0 mm
21:02 12.6 °F /  -10.8 °C 7.5 °F /  -13.6 °C 1019.2 in /  34510.1 hPa West 1.6 mph /  2.6 km/h 8.0 mph /  12.9 km/h 71 % 0.0 in /  0 mm
21:07 12.3 °F /  -10.9 °C 7.4 °F /  -13.7 °C 1019.2 in /  34510.1 hPa Calm   6.4 mph /  10.3 km/h 72 % 0.0 in /  0 mm
21:12 12.3 °F /  -10.9 °C 7.4 °F /  -13.7 °C 1019.2 in /  34510.1 hPa WSW 3.2 mph /  5.1 km/h 4.8 mph /  7.7 km/h 72 % 0.0 in /  0 mm
21:17 12.2 °F /  -11 °C 7.3 °F /  -13.7 °C 1019.2 in /  34510.1 hPa West 1.6 mph /  2.6 km/h 4.8 mph /  7.7 km/h 72 % 0.0 in /  0 mm
21:22 12.2 °F /  -11 °C 7.3 °F /  -13.7 °C 1019.2 in /  34510.1 hPa WSW 1.6 mph /  2.6 km/h 4.8 mph /  7.7 km/h 72 % 0.0 in /  0 mm
21:27 12.1 °F /  -11.1 °C 7.4 °F /  -13.7 °C 1019.2 in /  34510.1 hPa West 3.2 mph /  5.1 km/h 4.8 mph /  7.7 km/h 73 % 0.0 in /  0 mm
21:32 11.9 °F /  -11.2 °C 7.2 °F /  -13.8 °C 1019.2 in /  34510.1 hPa Calm   4.8 mph /  7.7 km/h 73 % 0.0 in /  0 mm
21:37 11.7 °F /  -11.3 °C 7.2 °F /  -13.8 °C 1019.2 in /  34510.1 hPa Calm   4.8 mph /  7.7 km/h 74 % 0.0 in /  0 mm
21:42 11.5 °F /  -11.4 °C 7.2 °F /  -13.8 °C 1019.2 in /  34510.1 hPa Calm   4.8 mph /  7.7 km/h 75 % 0.0 in /  0 mm
21:52 11.3 °F /  -11.5 °C 7.2 °F /  -13.8 °C 1019.2 in /  34510.1 hPa West 3.2 mph /  5.1 km/h 3.2 mph /  5.1 km/h 76 % 0.0 in /  0 mm
21:57 11.5 °F /  -11.4 °C 7.2 °F /  -13.8 °C 1019.2 in /  34510.1 hPa WSW 3.2 mph /  5.1 km/h 4.8 mph /  7.7 km/h 75 % 0.0 in /  0 mm
22:02 11.6 °F /  -11.3 °C 7.1 °F /  -13.8 °C 1019.2 in /  34510.1 hPa WSW 1.6 mph /  2.6 km/h 6.4 mph /  10.3 km/h 74 % 0.0 in /  0 mm
22:07 11.8 °F /  -11.2 °C 7.1 °F /  -13.8 °C 1019.2 in /  34510.1 hPa SW 4.8 mph /  7.7 km/h 6.4 mph /  10.3 km/h 73 % 0.0 in /  0 mm
22:12 12.2 °F /  -11 °C 7.3 °F /  -13.7 °C 1019.2 in /  34510.1 hPa WSW 6.4 mph /  10.3 km/h 8.0 mph /  12.9 km/h 72 % 0.0 in /  0 mm
22:17 12.4 °F /  -10.9 °C 7.3 °F /  -13.7 °C 1019.2 in /  34510.1 hPa WSW 4.8 mph /  7.7 km/h 9.7 mph /  15.6 km/h 71 % 0.0 in /  0 mm
22:22 12.5 °F /  -10.8 °C 7.4 °F /  -13.7 °C 1019.2 in /  34510.1 hPa SW 3.2 mph /  5.1 km/h 9.7 mph /  15.6 km/h 71 % 0.0 in /  0 mm
22:27 12.7 °F /  -10.7 °C 7.4 °F /  -13.7 °C 1019.2 in /  34510.1 hPa West 4.8 mph /  7.7 km/h 11.3 mph /  18.2 km/h 70 % 0.0 in /  0 mm
22:32 12.7 °F /  -10.7 °C 7.4 °F /  -13.7 °C 1019.2 in /  34510.1 hPa WSW 4.8 mph /  7.7 km/h 11.3 mph /  18.2 km/h 70 % 0.0 in /  0 mm
22:37 12.7 °F /  -10.7 °C 7.4 °F /  -13.7 °C 1019.2 in /  34510.1 hPa SW 1.6 mph /  2.6 km/h 11.3 mph /  18.2 km/h 70 % 0.0 in /  0 mm
22:42 12.7 °F /  -10.7 °C 7.4 °F /  -13.7 °C 1019.2 in /  34510.1 hPa WSW 4.8 mph /  7.7 km/h 8.0 mph /  12.9 km/h 70 % 0.0 in /  0 mm
22:47 12.7 °F /  -10.7 °C 7.4 °F /  -13.7 °C 1019.2 in /  34510.1 hPa West 3.2 mph /  5.1 km/h 6.4 mph /  10.3 km/h 70 % 0.0 in /  0 mm
22:52 12.7 °F /  -10.7 °C 7.4 °F /  -13.7 °C 1019.2 in /  34510.1 hPa West 3.2 mph /  5.1 km/h 8.0 mph /  12.9 km/h 70 % 0.0 in /  0 mm
22:57 12.6 °F /  -10.8 °C 7.5 °F /  -13.6 °C 1018.8 in /  34496.6 hPa Calm   8.0 mph /  12.9 km/h 71 % 0.0 in /  0 mm
23:02 12.3 °F /  -10.9 °C 7.6 °F /  -13.6 °C 1018.8 in /  34496.6 hPa Calm   8.0 mph /  12.9 km/h 73 % 0.0 in /  0 mm
23:07 11.8 °F /  -11.2 °C 7.7 °F /  -13.5 °C 1018.8 in /  34496.6 hPa Calm   8.0 mph /  12.9 km/h 76 % 0.0 in /  0 mm
23:12 11.4 °F /  -11.4 °C 7.5 °F /  -13.6 °C 1018.8 in /  34496.6 hPa Calm   3.2 mph /  5.1 km/h 77 % 0.0 in /  0 mm
23:17 11.0 °F /  -11.7 °C 7.5 °F /  -13.6 °C 1018.8 in /  34496.6 hPa SSE 1.6 mph /  2.6 km/h 1.6 mph /  2.6 km/h 79 % 0.0 in /  0 mm
23:22 10.7 °F /  -11.8 °C 7.4 °F /  -13.7 °C 1018.8 in /  34496.6 hPa SW 1.6 mph /  2.6 km/h 4.8 mph /  7.7 km/h 80 % 0.0 in /  0 mm
23:27 10.5 °F /  -11.9 °C 7.4 °F /  -13.7 °C 1018.8 in /  34496.6 hPa SSE 1.6 mph /  2.6 km/h 4.8 mph /  7.7 km/h 81 % 0.0 in /  0 mm
23:32 10.4 °F /  -12 °C 7.5 °F /  -13.6 °C 1018.8 in /  34496.6 hPa Calm   4.8 mph /  7.7 km/h 82 % 0.0 in /  0 mm
23:37 10.2 °F /  -12.1 °C 7.4 °F /  -13.7 °C 1018.8 in /  34496.6 hPa Calm   3.2 mph /  5.1 km/h 83 % 0.0 in /  0 mm
23:42 10.1 °F /  -12.2 °C 7.5 °F /  -13.6 °C 1018.8 in /  34496.6 hPa Calm   3.2 mph /  5.1 km/h 84 % 0.0 in /  0 mm
23:47 10.0 °F /  -12.2 °C 7.4 °F /  -13.7 °C 1018.8 in /  34496.6 hPa Calm   3.2 mph /  5.1 km/h 84 % 0.0 in /  0 mm
23:52 10.1 °F /  -12.2 °C 7.5 °F /  -13.6 °C 1018.8 in /  34496.6 hPa Calm   3.2 mph /  5.1 km/h 84 % 0.0 in /  0 mm
23:57 10.1 °F /  -12.2 °C 7.5 °F /  -13.6 °C 1018.8 in /  34496.6 hPa Calm   1.6 mph /  2.6 km/h 84 % 0.0 in /  0 mm
Meteo18
Compliments of Weather Underground - 4 mb

Script developed by  Jim McMurry - jmcmurry@mwt.net Adapted for the template by  Wim van der Kuil - Leuven-Template.eu

You find our weather info also at:

European Weather Network

Weather Underground

Equipment we use:

Weather-station
Davis Vue

Weather-program
Meteobridge

Weather-server
Raspberry PI 2 B+

Provider
1 and 1

Davis Vue

Meteobridge

Raspberry PI 2 B+

1 and 1